Location: Unspecified
(29.6167°N, 0.0000°E)
Time: 05:52:50
(UTC+00:00)

SL-16 DEB - Visible Passes

Search period start: 04 April 2026 00:00
Search period end: 14 April 2026 00:00
Orbit: 807 x 824 km, 71.0° (Epoch: 27 March)

Date Brightness Start Highest point End Pass type
(mag) Time Alt. Az. Time Alt. Az. Time Alt. Az.
4 Apr ? 03:19:14 10° NNE 03:22:59 18° ENE 03:26:42 10° ESE visible
4 Apr ? 05:01:22 10° NNW 05:06:36 45° WSW 05:11:48 10° S visible
5 Apr ? 02:56:48 10° NNE 02:59:47 14° ENE 03:02:43 10° E visible
5 Apr ? 04:38:09 10° NNW 04:43:35 58° WSW 04:48:56 10° S visible
5 Apr ? 19:22:19 10° WNW 19:23:54 11° WNW 19:25:29 10° NW visible
6 Apr ? 02:34:52 10° NE 02:36:33 11° ENE 02:38:13 10° ENE visible
6 Apr ? 04:15:01 10° NNW 04:20:32 75° WSW 04:26:00 10° SSE visible
6 Apr ? 18:57:45 10° W 19:00:40 14° WNW 19:03:36 10° NNW visible
7 Apr ? 03:51:55 10° NNW 03:57:28 86° ENE 04:02:57 10° SSE visible
8 Apr ? 03:28:53 10° NNW 03:34:23 68° ENE 03:39:50 10° SSE visible
8 Apr ? 05:16:09 10° W 05:17:08 10° W 05:18:06 10° WSW visible
9 Apr ? 03:05:54 10° N 03:11:17 53° ENE 03:16:37 10° SE visible
9 Apr ? 04:51:24 10° WNW 04:54:10 14° W 04:56:56 10° SW visible
10 Apr ? 02:42:57 10° N 02:46:42 34° NNE 02:46:42 34° NNE visible
10 Apr ? 04:27:31 10° WNW 04:27:46 11° WNW 04:27:46 11° WNW visible
11 Apr ? 02:20:05 10° N 02:22:10 21° NNE 02:22:10 21° NNE visible
12 Apr ? 01:57:16 10° N 01:58:20 15° NNE 01:58:20 15° NNE visible
13 Apr ? 01:34:34 10° NNE 01:34:50 11° NNE 01:34:50 11° NNE visible
